Location: Unspecified
(47.9110°N, 14.3980°E)
Time: 16:34:18
(UTC+00:00)

USA 267 - Pass Details

Date: 06 August 2020
Orbit: 1102 x 1106 km, 123.0° (Epoch: 18 September)

Event Time Altitude Azimuth Distance (km) Brightness Sun altitude
Rises 21:03:48 0° 58° (ENE) 3,927 6.2 -20.0°
Reaches altitude 10° 21:06:20 10° 54° (NE) 2,968 5.6 -20.2°
Maximum altitude 21:12:39 54° 340° (NNW) 1,327 4.0 -20.7°
Drops below altitude 10° 21:18:59 10° 265° (W) 2,964 5.8 -21.2°
Sets 21:21:30 0° 261° (W) 3,921 6.4 -21.4°
